Regional Weather Roundup
Issued by NWS

Home | Current Version | Previous Version | Graphics & Text | Print | Product List | Glossary On
Versions: 1 2 3 4 5 6 7 8 9 10 11 12 13 14 15 16 17 18 19 20 21 22 23 24 25 26 27 28 29 30 31 32 33 34 35 36 37 38 39 40 41 42 43 44 45 46 47 48 49 50
000
ASUS45 KSLC 252010
RWRUT

UTAH REGIONAL WEATHER ROUNDUP
NATIONAL WEATHER SERVICE SALT LAKE CITY UT
200 PM MDT FRI JUL 25 2014

UTZ001>011-023>025-252100-

NORTHERN UTAH

CITY           SKY/WX    TMP DP  RH WIND       PRES   REMARKS
HILL AFB       SUNNY     86  41  21 VRB6      30.08F
LOGAN          SUNNY     83  34  17 S3        30.07F
OGDEN          SUNNY     85  41  21 MISG      30.05F
PROVO AIRPORT  MOSUNNY   93  45  18 CALM      30.04F
SALT LAKE CITY MOSUNNY   88  47  24 NW9       30.02F
VERNAL         SUNNY     89  48  24 SW8       30.07F
WENDOVER       SUNNY     84  36  17 SE5       30.04F
HEBER CITY     SUNNY     90  37  15 SW13G23   30.11S
WEST JORDAN    SUNNY     88  54  31 N13       30.05F

$$

UTZ012>022-026-027-252100-

SOUTHERN UTAH

CITY           SKY/WX    TMP DP  RH WIND       PRES   REMARKS
BRYCE CANYON   CLOUDY    78  46  32 S7        30.34F
CEDAR CITY     MOSUNNY   93  41  16 SW15G25   30.15F
MILFORD        MOSUNNY   97  42  15 S25G36    30.06F HX  93
MOAB/CYNLANDS  LGT RAIN  86  47  25 SW14G31   30.07S
PRICE          MOSUNNY   92  40  16 VRB7      30.14F
ST GEORGE      CLEAR    102  52  18 SE10G17   29.95F HX 100
KANAB            N/A     88  45  22 S15       30.18F

$$

REGIONAL REPORTS     COLORADO/ARIZONA

CITY           SKY/WX    TMP DP  RH WIND       PRES   REMARKS
CRAIG, CO      PTSUNNY   77  47  34 VRB6      30.16F THUNDER
GRAND JUNCTION TSTM      73  60  63 S10       30.13R
RIFLE          MOSUNNY   89  45  21 W21       30.13F
MONTROSE       CLOUDY    83  57  41 W8        30.21F
CORTEZ         SUNNY     90  45  21 NW7       30.21F
PAGE, AZ       CLOUDY    83  55  38 W17G37    30.09R THUNDER
GRAND CANYON   MOSUNNY   82  46  28 NW6G17    30.30F
KINGMAN        MOSUNNY   99  52  20 SW23G30   30.04F HX  96
FLAGSTAFF      MOSUNNY   84  30  14 VRB5G18   30.33F

$$

REGIONAL REPORTS    NEVADA/IDAHO/WYOMING

CITY           SKY/WX    TMP DP  RH WIND       PRES   REMARKS
LAS VEGAS, NV  CLOUDY    99  52  20 S14G25    29.86F HX  96
ELY            SUNNY     91  24   9 SW23G37   30.14F
ELKO           SUNNY     87  26  11 CALM      30.08F
POCATELLO, ID  SUNNY     80  30  16 W13       30.11F
BURLEY         SUNNY     76  35  22 W9        30.09F
EVANSTON, WY   SUNNY     86  34  15 W20G29    30.22S
ROCK SPRINGS   MOSUNNY   88  28  11 W20G36    30.16F

$$


USA.gov is the U.S. government's official web portal to all federal, state and local government web resources and services.